map of BTU home
BTU - Airport
Location
City:  Bintulu, Sarawak, Malaysia
ICAO:WBGB
IATA:BTU

Details
Type:Airport (Aerodrome, Airfield)
Use:Public/Civil
Latitude:307'26"N (3.123850)
Longitude:11301'14"E (113.020472)
Datum:WGS 1984
Elevation:74 ft (23 m)
Variation:0.17E (WMM2015 magnetic declination)
-0.07 annual change
Runways:1
Longest:9006 × 147 ft (2745 × 45 m), paved

Time
Time Zone:UTC+8
Local Time:

Weather
METAR:WBGB 210300Z 17004KT 9999 SCT016 SCT150 BKN300 28/25 Q1013
TAF:WBGB 202300Z 2100/2200 23006KT 9999 FEW016 SCT150 BKN300
TEMPO 2100/2103 4000 RA FEW005 SCT016 BKN150
TEMPO 2106/2110 4000 TSRA SCT014 FEW015CB BKN150

Related Locations
Nearby:
Farthest:FBA: 12368 mi / 19904 km
Fonte Boa, AM, BR

Find:

   beyond  
but within

Other Information
Maps:
NOTAMs:
Links:
Sources:

  
flag of Malaysia
flag of Sarawak
  

Sectional Chart

Flight Planning
at skyvector.com

Satellite Image

Google Maps Satellite view

 

Copyright © 2004-2017 Karl L. Swartz. All rights reserved.
The Great Circle Mapper name and logo are trademarks of the Great Circle Mapper.
All other trademarks mentioned herein belong to their respective owners.
Please see credits for attibutions and further copyright information.

  Follow gcmap on Facebook Follow gcmap on Twitter Follow gcmap on Google+ GCmap on LinkedIn

hCard Microformat

Geo Microformat